| time (UTC) | temp C | wind direction | speed KPH | gust KPH | rain 1hr cm | rain 24hr cm | rain mn cm | humidity % | barometer mb |
| 20260508074557 | 13 | 20 | 8.0 | 14.5 | 0.00 | 0.00 | 0.00 | 48 | 1009.3 |
| 20260508073058 | 13 | 1 | 6.4 | 11.3 | 0.00 | 0.00 | 0.00 | 49 | 1009.5 |
| 20260508071600 | 13 | 36 | 4.8 | 9.7 | 0.00 | 0.00 | 0.00 | 48 | 1009.6 |
| 20260508070137 | 13 | 33 | 4.8 | 11.3 | 0.00 | 0.00 | 0.00 | 49 | 1009.8 |
| 20260508064605 | 14 | 13 | 4.8 | 8.0 | 0.00 | 0.00 | 0.00 | 47 | 1009.9 |
| 20260508063050 | 14 | 25 | 4.8 | 11.3 | 0.00 | 0.00 | 0.00 | 45 | 1009.8 |
| 20260508061549 | 15 | 26 | 9.7 | 16.1 | 0.00 | 0.00 | 0.00 | 43 | 1009.7 |
| 20260508060045 | 14 | 32 | 9.7 | 19.3 | 0.00 | 0.00 | 0.00 | 46 | 1009.8 |
| 20260508054544 | 14 | 1 | 3.2 | 8.0 | 0.00 | 0.00 | 0.00 | 46 | 1009.6 |
| 20260508053045 | 14 | 340 | 0.0 | 4.8 | 0.00 | 0.00 | 0.00 | 45 | 1009.4 |
| 20260508051542 | 13 | 274 | 3.2 | 9.7 | 0.00 | 0.00 | 0.00 | 50 | 1009.6 |
| 20260508050041 | 13 | 290 | 0.0 | 1.6 | 0.00 | 0.00 | 0.00 | 49 | 1009.8 |
| 20260508044541 | 13 | 290 | 0.0 | 1.6 | 0.00 | 0.00 | 0.00 | 49 | 1009.9 |
| 20260508043056 | 13 | 261 | 0.0 | 6.4 | 0.00 | 0.00 | 0.00 | 51 | 1010.0 |
| 20260508041540 | 14 | 40 | 0.0 | 0.0 | 0.00 | 0.00 | 0.00 | 44 | 1009.9 |
| 20260508040039 | 15 | 40 | 0.0 | 3.2 | 0.00 | 0.00 | 0.00 | 44 | 1010.0 |
| 20260508034540 | 13 | 31 | 1.6 | 4.8 | 0.00 | 0.00 | 0.00 | 44 | 1009.9 |
| 20260508033039 | 13 | 31 | 0.0 | 0.0 | 0.00 | 0.00 | 0.00 | 49 | 1009.8 |
| 20260508031545 | 14 | 31 | 0.0 | 1.6 | 0.00 | 0.00 | 0.00 | 47 | 1009.7 |
| 20260508030049 | 15 | 31 | 0.0 | 0.0 | 0.00 | 0.00 | 0.00 | 43 | 1009.6 |
| 20260508024536 | 15 | 31 | 0.0 | 4.8 | 0.00 | 0.00 | 0.00 | 41 | 1009.5 |
| 20260508023042 | 15 | 31 | 0.0 | 0.0 | 0.00 | 0.00 | 0.00 | 39 | 1009.2 |
| 20260508021538 | 16 | 31 | 0.0 | 1.6 | 0.00 | 0.00 | 0.00 | 40 | 1009.1 |
| 20260508020035 | 17 | 15 | 1.6 | 3.2 | 0.00 | 0.00 | 0.00 | 37 | 1009.1 |
| 20260508014534 | 18 | 15 | 0.0 | 0.0 | 0.00 | 0.00 | 0.00 | 31 | 1008.7 |
| 20260508013033 | 19 | 331 | 4.8 | 12.9 | 0.00 | 0.00 | 0.00 | 28 | 1008.5 |
| 20260508011532 | 19 | 257 | 0.0 | 4.8 | 0.00 | 0.00 | 0.00 | 28 | 1008.8 |
| 20260508010031 | 19 | 78 | 1.6 | 16.1 | 0.00 | 0.00 | 0.00 | 28 | 1008.9 |
| 20260508004529 | 19 | 98 | 9.7 | 17.7 | 0.00 | 0.00 | 0.00 | 27 | 1009.0 |
| 20260508003027 | 20 | 59 | 6.4 | 17.7 | 0.00 | 0.00 | 0.00 | 28 | 1009.3 |
| 20260508001528 | 20 | 88 | 8.0 | 16.1 | 0.00 | 0.00 | 0.00 | 27 | 1009.3 |
| 20260508000024 | 20 | 91 | 9.7 | 17.7 | 0.00 | 0.00 | 0.00 | 25 | 1009.6 |
| 20260507234524 | 20 | 76 | 9.7 | 16.1 | 0.00 | 0.00 | 0.00 | 24 | 1009.6 |
| 20260507233024 | 20 | 53 | 16.1 | 20.9 | 0.00 | 0.00 | 0.00 | 24 | 1009.7 |
| 20260507231526 | 21 | 11 | 4.8 | 11.3 | 0.00 | 0.00 | 0.00 | 22 | 1010.0 |
| 20260507230021 | 22 | 291 | 1.6 | 11.3 | 0.00 | 0.00 | 0.00 | 22 | 1010.1 |
| 20260507224518 | 22 | 198 | 9.7 | 17.7 | 0.00 | 0.00 | 0.00 | 21 | 1010.2 |
| 20260507223017 | 22 | 164 | 6.4 | 17.7 | 0.00 | 0.00 | 0.00 | 21 | 1010.3 |
| 20260507221514 | 22 | 210 | 8.0 | 19.3 | 0.00 | 0.00 | 0.00 | 21 | 1010.7 |
| 20260507220012 | 22 | 105 | 3.2 | 16.1 | 0.00 | 0.08 | 0.00 | 21 | 1011.0 |
| 20260507214508 | 22 | 228 | 0.0 | 8.0 | 0.00 | 0.08 | 0.00 | 21 | 1011.5 |
| 20260507213004 | 21 | 200 | 8.0 | 19.3 | 0.00 | 0.08 | 0.00 | 23 | 1011.8 |
| 20260507211503 | 21 | 222 | 3.2 | 16.1 | 0.00 | 0.08 | 0.00 | 22 | 1012.3 |
| 20260507210100 | 21 | 335 | 1.6 | 11.3 | 0.00 | 0.08 | 0.00 | 23 | 1012.7 |
| 20260507204601 | 21 | 238 | 6.4 | 17.7 | 0.00 | 0.08 | 0.00 | 23 | 1013.2 |
| 20260507203055 | 21 | 205 | 3.2 | 16.1 | 0.00 | 0.08 | 0.00 | 21 | 1013.7 |
| 20260507201601 | 20 | 221 | 4.8 | 12.9 | 0.00 | 0.08 | 0.00 | 22 | 1014.1 |
| 20260507200054 | 20 | 300 | 3.2 | 12.9 | 0.00 | 0.18 | 0.00 | 18 | 1014.5 |
| 20260507194550 | 20 | 267 | 6.4 | 16.1 | 0.00 | 0.18 | 0.00 | 21 | 1014.7 |
| 20260507193042 | 20 | 241 | 4.8 | 16.1 | 0.00 | 0.18 | 0.00 | 20 | 1015.0 |
| 20260507191545 | 19 | 189 | 4.8 | 12.9 | 0.00 | 0.18 | 0.00 | 21 | 1015.2 |
| 20260507190036 | 18 | 257 | 1.6 | 9.7 | 0.00 | 0.30 | 0.00 | 22 | 1015.6 |
| 20260507184536 | 18 | 311 | 4.8 | 19.3 | 0.00 | 0.30 | 0.00 | 24 | 1016.0 |
| 20260507183038 | 18 | 298 | 6.4 | 19.3 | 0.00 | 0.30 | 0.00 | 27 | 1016.4 |
| 20260507181527 | 17 | 257 | 8.0 | 27.4 | 0.00 | 0.30 | 0.00 | 27 | 1016.8 |
| 20260507180024 | 17 | 231 | 11.3 | 25.7 | 0.00 | 0.38 | 0.00 | 29 | 1017.1 |
| 20260507174527 | 17 | 231 | 14.5 | 29.0 | 0.00 | 0.38 | 0.00 | 28 | 1017.4 |
| 20260507173017 | 16 | 215 | 9.7 | 29.0 | 0.00 | 0.38 | 0.00 | 30 | 1017.8 |
| 20260507171519 | 16 | 233 | 17.7 | 29.0 | 0.00 | 0.38 | 0.00 | 28 | 1018.1 |
| 20260507170011 | 15 | 217 | 12.9 | 29.0 | 0.00 | 0.48 | 0.00 | 28 | 1018.4 |
| 20260507164509 | 15 | 244 | 6.4 | 19.3 | 0.00 | 0.48 | 0.00 | 34 | 1018.6 |
| 20260507163003 | 14 | 211 | 11.3 | 32.2 | 0.00 | 0.48 | 0.00 | 35 | 1018.8 |
| 20260507161608 | 13 | 234 | 12.9 | 33.8 | 0.00 | 0.48 | 0.00 | 35 | 1019.0 |
| 20260507160056 | 13 | 240 | 16.1 | 32.2 | 0.00 | 0.58 | 0.00 | 35 | 1019.3 |
| 20260507154552 | 12 | 246 | 11.3 | 30.6 | 0.00 | 0.58 | 0.00 | 38 | 1019.3 |
| 20260507153050 | 12 | 271 | 8.0 | 25.7 | 0.00 | 0.58 | 0.00 | 38 | 1019.6 |
| 20260507151546 | 11 | 252 | 9.7 | 30.6 | 0.00 | 0.58 | 0.00 | 37 | 1019.9 |
| 20260507150046 | 11 | 234 | 9.7 | 25.7 | 0.00 | 0.58 | 0.00 | 39 | 1020.2 |
| 20260507144540 | 11 | 246 | 11.3 | 25.7 | 0.00 | 0.58 | 0.00 | 37 | 1020.1 |
| 20260507143055 | 9 | 188 | 8.0 | 22.5 | 0.00 | 0.58 | 0.00 | 43 | 1020.4 |
| 20260507141547 | 8 | 271 | 4.8 | 19.3 | 0.00 | 0.58 | 0.00 | 49 | 1020.7 |
| 20260507140028 | 7 | 318 | 8.0 | 25.7 | 0.00 | 0.61 | 0.00 | 49 | 1021.0 |
| 20260507134524 | 6 | 310 | 4.8 | 14.5 | 0.00 | 0.61 | 0.00 | 56 | 1021.3 |
| 20260507133020 | 5 | 274 | 4.8 | 14.5 | 0.00 | 0.61 | 0.00 | 57 | 1021.5 |
| 20260507131515 | 5 | 240 | 3.2 | 16.1 | 0.00 | 0.61 | 0.00 | 61 | 1021.7 |
| 20260507130029 | 4 | 279 | 3.2 | 11.3 | 0.00 | 0.61 | 0.00 | 63 | 1021.7 |
| 20260507124511 | 3 | 260 | 0.0 | 12.9 | 0.00 | 0.61 | 0.00 | 64 | 1021.6 |
| 20260507123006 | 3 | 269 | 3.2 | 20.9 | 0.00 | 0.61 | 0.00 | 65 | 1021.6 |
| 20260507121504 | 3 | 315 | 4.8 | 16.1 | 0.00 | 0.61 | 0.00 | 66 | 1021.6 |
| 20260507120001 | 3 | 263 | 3.2 | 16.1 | 0.00 | 0.61 | 0.00 | 67 | 1021.5 |
| 20260507114600 | 2 | 261 | 3.2 | 11.3 | 0.00 | 0.61 | 0.00 | 70 | 1021.4 |
| 20260507113056 | 2 | 252 | 1.6 | 9.7 | 0.00 | 0.61 | 0.00 | 72 | 1021.6 |
| 20260507111555 | 1 | 154 | 0.0 | 12.9 | 0.00 | 0.61 | 0.00 | 75 | 1021.6 |
| 20260507110052 | 1 | 305 | 3.2 | 12.9 | 0.00 | 0.61 | 0.00 | 78 | 1021.5 |
| 20260507104551 | 1 | 286 | 0.0 | 1.6 | 0.00 | 0.61 | 0.00 | 79 | 1021.6 |
| 20260507103045 | 0 | 296 | 0.0 | 9.7 | 0.00 | 0.61 | 0.00 | 83 | 1021.8 |
| 20260507101546 | 0 | 302 | 0.0 | 0.0 | 0.00 | 0.61 | 0.00 | 86 | 1021.9 |
| 20260507100053 | 0 | 302 | 0.0 | 3.2 | 0.00 | 0.61 | 0.00 | 88 | 1022.0 |
| 20260507094541 | 0 | 302 | 0.0 | 0.0 | 0.00 | 0.61 | 0.00 | 88 | 1022.0 |
| 20260507093042 | 0 | 302 | 0.0 | 0.0 | 0.00 | 0.61 | 0.00 | 88 | 1022.2 |
| 20260507091541 | 0 | 302 | 0.0 | 3.2 | 0.00 | 0.61 | 0.00 | 87 | 1022.4 |
| 20260507090044 | 0 | 302 | 0.0 | 0.0 | 0.00 | 0.66 | 0.00 | 87 | 1022.4 |
| 20260507084547 | 0 | 302 | 0.0 | 0.0 | 0.00 | 0.66 | 0.00 | 85 | 1022.5 |
| 20260507083037 | 0 | 302 | 0.0 | 4.8 | 0.00 | 0.66 | 0.00 | 85 | 1022.5 |
| 20260507081536 | 1 | 302 | 0.0 | 6.4 | 0.00 | 0.66 | 0.00 | 86 | 1022.3 |
| 20260507080033 | 0 | 339 | 3.2 | 6.4 | 0.00 | 0.81 | 0.00 | 90 | 1022.6 |